KF0DL Weather Reports


time (UTC)temp
C
wind
direction
speed
KPH
gust
KPH
rain 1hr
cm
rain 24hr
cm
rain mn
cm
humidity
%
barometer
mb
20260906210822 26 100 1.6 9.7 0.00 1.17 1.17 65 1018.0
20260906210327 26 71 4.8 11.3 0.00 1.17 1.17 64 1018.0
20260906205833 26 137 6.4 11.3 0.00 1.17 1.17 65 1018.0
20260906205320 26 112 1.6 9.7 0.00 1.17 1.17 67 1018.3
20260906204826 26 123 1.6 9.7 0.00 1.17 1.17 68 1018.3
20260906204333 25 181 3.2 11.3 0.00 1.17 1.17 69 1018.3
20260906203821 25 109 6.4 11.3 0.00 1.17 1.17 71 1018.7
20260906203326 25 195 1.6 8.0 0.00 1.17 1.17 73 1018.7
20260906202838 24 95 4.8 9.7 0.00 1.17 1.17 74 1018.7
20260906202324 23 104 6.4 11.3 0.00 1.17 1.17 75 1018.3
20260906201831 23 113 8.0 11.3 0.00 1.17 1.17 77 1018.3
20260906201339 23 126 6.4 11.3 0.00 1.17 1.17 78 1018.3
20260906200826 23 49 4.8 11.3 0.00 1.17 1.17 80 1018.5
20260906200332 22 82 4.8 16.1 0.00 1.17 1.17 80 1018.5
20260906195819 22 120 4.8 16.1 0.00 1.17 1.17 81 1019.3
20260906195327 22 109 3.2 12.9 0.00 1.17 1.17 82 1019.3
20260906194835 22 102 9.7 12.9 0.00 1.17 1.17 82 1019.3
20260906194325 22 95 8.0 11.3 0.00 1.17 1.17 83 1019.3
20260906193833 22 121 6.4 9.7 0.00 1.17 1.17 83 1019.7
20260906193319 22 133 4.8 11.3 0.00 1.17 1.17 83 1019.7
20260906192827 22 97 6.4 16.1 0.00 1.17 1.17 83 1019.7
20260906192334 22 113 6.4 16.1 0.00 1.17 1.17 84 1020.1
20260906191821 22 85 6.4 27.4 0.00 1.17 1.17 85 1020.1
20260906191328 22 147 11.3 27.4 0.00 1.17 1.17 86 1020.1
20260906190833 23 124 12.9 19.3 0.13 1.17 1.17 88 1019.9
20260906190321 23 130 4.8 9.7 0.38 1.17 1.17 88 1019.9
20260906185827 23 97 6.4 9.7 0.64 1.17 1.17 88 1019.9
20260906185337 23 167 4.8 11.3 0.89 1.17 1.17 89 1019.7
20260906184824 23 116 8.0 16.1 1.07 1.17 1.17 88 1019.7
20260906184331 22 47 8.0 16.1 1.17 1.17 1.17 87 1019.7
20260906183838 22 56 8.0 14.5 1.17 1.17 1.17 87 1017.6
20260906183323 22 360 0.0 11.3 1.17 1.17 1.17 86 1017.6
20260906182828 22 342 4.8 11.3 1.17 1.17 1.17 86 1017.6
20260906182335 22 360 4.8 9.7 1.17 1.17 1.17 86 1019.0
20260906181822 22 44 3.2 16.1 1.17 1.17 1.17 85 1019.0
20260906181329 22 48 6.4 16.1 1.17 1.17 1.17 83 1019.0
20260906180820 22 356 6.4 11.3 1.07 1.07 1.07 82 1021.2
20260906180327 23 267 1.6 16.1 0.81 0.81 0.81 81 1021.2
20260906175834 23 196 3.2 16.1 0.56 0.56 0.56 80 1021.2
20260906175323 23 193 6.4 14.5 0.28 0.28 0.28 78 1020.1
20260906174830 24 213 4.8 11.3 0.13 0.13 0.13 75 1020.1
20260906174338 24 234 4.8 14.5 0.00 0.00 0.00 73 1020.1
20260906173823 24 267 4.8 14.5 0.00 0.00 0.00 72 1019.7
20260906173328 25 103 6.4 11.3 0.00 0.00 0.00 70 1019.7
20260906172817 25 301 4.8 19.3 0.00 0.00 0.00 69 1019.3
20260906172327 25 294 9.7 20.9 0.00 0.00 0.00 66 1019.3
20260906171837 26 325 4.8 20.9 0.00 0.00 0.00 65 1019.3
20260906171323 27 357 11.3 20.9 0.00 0.00 0.00 62 1019.3
20260906170833 27 271 6.4 9.7 0.00 0.00 0.00 63 1019.1
20260906170321 27 360 4.8 11.3 0.00 0.00 0.00 62 1019.1
20260906165828 28 215 3.2 12.9 0.00 0.00 0.00 61 1019.1
20260906165333 28 313 8.0 12.9 0.00 0.00 0.00 61 1018.9
20260906164820 28 299 4.8 8.0 0.00 0.00 0.00 61 1018.9
20260906164328 28 346 3.2 8.0 0.00 0.00 0.00 60 1018.9
20260906163833 28 66 3.2 4.8 0.00 0.00 0.00 61 1018.6
20260906163324 28 61 3.2 6.4 0.00 0.00 0.00 61 1018.6
20260906162829 28 282 0.0 8.0 0.00 0.00 0.00 62 1018.6
20260906162337 28 335 3.2 8.0 0.00 0.00 0.00 62 1018.0
20260906161824 27 304 3.2 8.0 0.00 0.00 0.00 62 1018.0
20260906161332 27 49 1.6 8.0 0.00 0.00 0.00 64 1018.0
20260906160838 27 72 3.2 9.7 0.00 0.00 0.00 65 1017.6
20260906160325 27 68 4.8 9.7 0.00 0.00 0.00 66 1017.6
20260906155833 26 24 3.2 4.8 0.00 0.00 0.00 68 1017.6
20260906155320 26 47 0.0 4.8 0.00 0.00 0.00 69 1017.6
20260906154940 26 47 1.6 4.8 0.00 0.00 0.00 70 1017.6
20260906154335 26 359 1.6 4.8 0.00 0.00 0.00 72 1017.6
20260906153823 25 354 1.6 3.2 0.00 0.00 0.00 72 1017.9
20260906153330 25 65 1.6 4.8 0.00 0.00 0.00 73 1017.9
20260906152838 25 65 1.6 8.0 0.00 0.00 0.00 74 1017.9
20260906152324 25 66 3.2 8.0 0.00 0.00 0.00 75 1017.9
20260906151830 24 65 1.6 4.8 0.00 0.00 0.00 77 1017.9
20260906151318 24 82 3.2 8.0 0.00 0.00 0.00 79 1017.9
20260906150827 23 86 3.2 8.0 0.00 0.00 0.00 79 1017.9
20260906150335 23 89 3.2 6.4 0.00 0.00 0.00 80 1017.9
20260906145824 23 76 3.2 4.8 0.00 0.00 0.00 81 1017.9
20260906145331 23 313 3.2 4.8 0.00 0.00 0.00 82 1018.4
20260906144837 22 313 1.6 4.8 0.00 0.00 0.00 82 1018.4
20260906144324 22 313 1.6 4.8 0.00 0.00 0.00 82 1018.4
20260906143832 22 313 1.6 4.8 0.00 0.00 0.00 82 1018.4
20260906143338 22 291 3.2 4.8 0.00 0.00 0.00 82 1018.4
20260906142825 22 34 3.2 8.0 0.00 0.00 0.00 82 1018.4
20260906142332 22 302 1.6 8.0 0.00 0.00 0.00 82 1018.7
20260906141838 22 360 4.8 8.0 0.00 0.00 0.00 82 1018.7
20260906141326 22 333 3.2 8.0 0.00 0.00 0.00 82 1018.7
20260906140838 22 237 1.6 8.0 0.00 0.00 0.00 82 1018.2
20260906140325 23 320 1.6 4.8 0.00 0.00 0.00 83 1018.2
20260906135831 23 240 0.0 4.8 0.00 0.00 0.00 85 1018.2
20260906135339 23 240 1.6 4.8 0.00 0.00 0.00 85 1018.4
20260906134826 22 240 3.2 4.8 0.00 0.00 0.00 86 1018.4
20260906134333 22 264 1.6 8.0 0.00 0.00 0.00 87 1018.4
20260906133821 22 264 0.0 8.0 0.00 0.00 0.00 87 1017.9
20260906133327 22 219 3.2 6.4 0.00 0.00 0.00 86 1017.9
20260906132834 22 23 3.2 6.4 0.00 0.00 0.00 86 1017.9
20260906132321 21 79 1.6 6.4 0.00 0.00 0.00 86 1018.0
20260906131829 21 117 3.2 9.7 0.00 0.00 0.00 86 1018.0
20260906131337 21 121 3.2 9.7 0.00 0.00 0.00 86 1018.0
20260906130824 21 123 6.4 9.7 0.00 0.00 0.00 86 1017.7
20260906130331 21 82 6.4 9.7 0.00 0.00 0.00 86 1017.7
20260906125838 21 68 4.8 9.7 0.00 0.00 0.00 86 1017.7
20260906125324 21 42 4.8 8.0 0.00 0.00 0.00 86 1018.2
20260906124830 21 66 3.2 8.0 0.00 0.00 0.00 86 1018.2
20260906124338 21 332 3.2 8.0 0.00 0.00 0.00 86 1018.2
20260906123826 21 322 3.2 11.3 0.00 0.00 0.00 86 1017.9
20260906123336 21 126 1.6 11.3 0.00 0.00 0.00 86 1017.9
20260906122826 21 85 4.8 11.3 0.00 0.00 0.00 85 1017.9
20260906122333 21 175 3.2 11.3 0.00 0.00 0.00 85 1018.2
20260906121820 21 104 4.8 11.3 0.00 0.00 0.00 85 1018.2
20260906121327 21 128 6.4 11.3 0.00 0.00 0.00 85 1018.2
20260906120835 21 160 6.4 11.3 0.00 0.00 0.00 84 1018.0
20260906120322 21 141 4.8 14.5 0.00 0.00 0.00 84 1018.0
20260906115830 21 191 3.2 14.5 0.00 0.00 0.00 84 1018.0
20260906115336 21 116 6.4 11.3 0.00 0.00 0.00 85 1017.8
20260906114827 21 178 4.8 9.7 0.00 0.00 0.00 85 1017.8
20260906114334 21 124 4.8 9.7 0.00 0.00 0.00 85 1017.8
20260906113822 21 126 4.8 11.3 0.00 0.00 0.00 85 1017.6
20260906113328 21 80 6.4 12.9 0.00 0.00 0.00 85 1017.6
20260906112835 21 116 8.0 11.3 0.00 0.00 0.00 85 1017.6
20260906112321 21 100 4.8 11.3 0.00 0.00 0.00 85 1017.8
20260906111829 21 124 4.8 11.3 0.00 0.00 0.00 85 1017.8
20260906111335 21 124 6.4 12.9 0.00 0.00 0.00 85 1017.8
20260906110822 21 136 6.4 12.9 0.00 0.00 0.00 85 1017.6
20260906110330 20 116 4.8 9.7 0.00 0.00 0.00 85 1017.6
20260906105821 20 127 4.8 9.7 0.00 0.00 0.00 85 1017.6
20260906105329 20 95 4.8 9.7 0.00 0.00 0.00 85 1017.7
20260906104835 20 90 3.2 9.7 0.00 0.00 0.00 85 1017.7
20260906104322 20 127 4.8 9.7 0.00 0.00 0.00 85 1017.7
20260906103828 21 106 6.4 9.7 0.00 0.00 0.00 85 1018.6
20260906103335 21 96 6.4 9.7 0.00 0.00 0.00 85 1018.6
20260906102823 21 97 8.0 11.3 0.00 0.00 0.00 85 1018.6
20260906102330 21 120 8.0 11.3 0.00 0.00 0.00 85 1018.4
20260906101836 21 123 6.4 11.3 0.00 0.00 0.00 85 1018.4
20260906101328 21 123 6.4 11.3 0.00 0.00 0.00 85 1018.4
20260906100835 21 88 6.4 11.3 0.00 0.00 0.00 85 1018.4
20260906100322 21 120 8.0 11.3 0.00 0.00 0.00 85 1018.4
20260906095829 21 119 9.7 11.3 0.00 0.00 0.00 85 1018.4
20260906095336 21 93 8.0 11.3 0.00 0.00 0.00 85 1018.5
20260906094824 21 109 9.7 16.1 0.00 0.00 0.00 85 1018.5
20260906094330 21 120 8.0 16.1 0.00 0.00 0.00 85 1018.5
20260906093834 21 88 9.7 14.5 0.00 0.00 0.00 85 1018.4
20260906093322 21 117 9.7 14.5 0.00 0.00 0.00 85 1018.4
20260906092826 21 97 6.4 11.3 0.00 0.00 0.00 85 1018.4
20260906092337 21 90 8.0 14.5 0.00 0.00 0.00 85 1018.3
20260906091825 21 121 8.0 17.7 0.00 0.00 0.00 85 1018.3
20260906091331 21 79 9.7 17.7 0.00 0.00 0.00 85 1018.3
20260906090839 21 112 9.7 16.1 0.00 0.00 0.00 85 1018.4
20260906090327 21 80 9.7 12.9 0.00 0.00 0.00 85 1018.4
20260906085835 21 107 8.0 16.1 0.00 0.00 0.00 85 1018.4
20260906085322 21 133 9.7 16.1 0.00 0.00 0.00 85 1018.5
20260906084828 21 90 9.7 16.1 0.00 0.00 0.00 85 1018.5
20260906084334 21 92 8.0 16.1 0.00 0.00 0.00 85 1018.5
20260906083825 21 95 9.7 17.7 0.00 0.00 0.00 85 1018.4
20260906083333 21 119 11.3 19.3 0.00 0.00 0.00 85 1018.4
20260906082820 21 95 9.7 19.3 0.00 0.00 0.00 85 1018.2
20260906082327 21 32 11.3 17.7 0.00 0.00 0.00 84 1018.2
20260906081834 21 80 11.3 16.1 0.00 0.00 0.00 84 1018.2
20260906081321 21 75 9.7 16.1 0.00 0.00 0.00 84 1018.2
20260906080826 21 96 9.7 17.7 0.00 0.00 0.00 84 1018.2
20260906080334 21 80 11.3 17.7 0.00 0.00 0.00 84 1018.2
20260906075822 21 55 6.4 16.1 0.00 0.00 0.00 84 1018.2
20260906075328 21 88 6.4 17.7 0.00 0.00 0.00 84 1018.3
20260906074838 21 88 9.7 17.7 0.00 0.00 0.00 84 1018.3
20260906074326 21 93 8.0 17.7 0.00 0.00 0.00 84 1018.3
20260906073834 21 86 8.0 14.5 0.00 0.00 0.00 83 1018.4
20260906073339 21 88 11.3 17.7 0.00 0.00 0.00 83 1018.4
20260906072826 21 92 8.0 17.7 0.00 0.00 0.00 83 1018.4
20260906072332 21 59 11.3 17.7 0.00 0.00 0.00 83 1018.3
20260906071838 21 123 9.7 12.9 0.00 0.00 0.00 83 1018.3
20260906071325 21 100 4.8 17.7 0.00 0.00 0.00 83 1018.3
20260906070832 21 85 9.7 17.7 0.00 0.00 0.00 82 1018.5
20260906070323 21 171 11.3 17.7 0.00 0.00 0.00 82 1018.5
20260906065828 21 92 11.3 17.7 0.00 0.00 0.00 82 1018.5
20260906065335 21 110 6.4 17.7 0.00 0.00 0.00 82 1018.4
20260906064823 21 141 9.7 17.7 0.00 0.00 0.00 82 1018.4
20260906064329 21 102 9.7 22.5 0.00 0.00 0.00 81 1018.4
20260906063835 21 107 12.9 22.5 0.00 0.00 0.00 81 1018.9
20260906063322 21 76 11.3 20.9 0.00 0.00 0.00 81 1018.9
20260906062830 21 114 16.1 19.3 0.00 0.00 0.00 81 1018.9
20260906062332 21 95 9.7 19.3 0.00 0.00 0.00 80 1018.4
20260906061820 21 119 12.9 19.3 0.00 0.00 0.00 80 1018.4
20260906061330 21 103 11.3 17.7 0.00 0.00 0.00 80 1018.4
20260906060837 22 100 8.0 16.1 0.00 0.00 0.00 79 1017.7
20260906060327 22 80 6.4 16.1 0.00 0.00 0.00 79 1017.7
20260906055835 22 119 9.7 14.5 0.00 0.00 0.00 79 1017.7
20260906055323 22 102 8.0 14.5 0.00 0.00 0.00 78 1017.8
20260906054828 22 85 9.7 12.9 0.00 0.00 0.00 78 1017.8
20260906054335 22 137 8.0 16.1 0.00 0.00 0.00 78 1017.8
20260906053823 22 103 9.7 16.1 0.00 0.00 0.00 77 1017.8
20260906053329 22 136 8.0 16.1 0.00 0.00 0.00 77 1017.8
20260906052821 22 120 11.3 16.1 0.00 0.00 0.00 77 1017.8
20260906052329 22 112 9.7 19.3 0.00 0.00 0.00 77 1017.7
20260906051835 22 100 11.3 19.3 0.00 0.00 0.00 77 1017.7
20260906051323 22 86 11.3 16.1 0.00 0.00 0.00 76 1017.7
20260906050830 22 93 9.7 16.1 0.00 0.00 0.00 76 1017.8
20260906050336 22 121 9.7 12.9 0.00 0.00 0.00 76 1017.8
20260906045822 22 85 8.0 19.3 0.00 0.00 0.00 76 1017.9
20260906045329 22 93 11.3 19.3 0.00 0.00 0.00 75 1017.9
20260906044837 22 110 11.3 16.1 0.00 0.00 0.00 75 1017.9
20260906044325 22 75 9.7 16.1 0.00 0.00 0.00 75 1017.9
20260906043835 22 148 8.0 12.9 0.00 0.00 0.00 75 1017.8
20260906043323 22 113 6.4 17.7 0.00 0.00 0.00 75 1017.8
20260906042829 22 66 11.3 17.7 0.00 0.00 0.00 75 1017.8
20260906042335 22 79 8.0 17.7 0.00 0.00 0.00 74 1017.7
20260906041820 23 65 8.0 17.7 0.00 0.00 0.00 74 1017.7
20260906041328 23 45 9.7 19.3 0.00 0.00 0.00 73 1017.7
20260906040834 23 96 8.0 19.3 0.00 0.00 0.00 73 1017.9
20260906040322 23 49 8.0 20.9 0.00 0.00 0.00 73 1017.9
20260906035828 23 89 9.7 17.7 0.00 0.00 0.00 72 1017.9
20260906035335 23 89 9.7 17.7 0.00 0.00 0.00 72 1017.9
20260906034826 23 76 4.8 17.7 0.00 0.00 0.00 72 1017.9
20260906034334 23 72 9.7 19.3 0.00 0.00 0.00 72 1017.9
20260906033820 23 34 11.3 19.3 0.00 0.00 0.00 72 1017.6
20260906033328 23 62 8.0 19.3 0.00 0.00 0.00 72 1017.6
20260906032834 23 75 6.4 17.7 0.00 0.00 0.00 71 1017.6
20260906032320 23 83 11.3 17.7 0.00 0.00 0.00 71 1017.4
20260906031828 23 58 11.3 17.7 0.00 0.00 0.00 71 1017.4
20260906031335 23 58 8.0 17.7 0.00 0.00 0.00 71 1017.4
20260906030838 23 80 9.7 19.3 0.00 0.00 0.00 71 1017.5
20260906030330 23 45 11.3 19.3 0.00 0.00 0.00 70 1017.5
20260906025836 24 64 8.0 14.5 0.00 0.00 0.00 70 1017.5
20260906025322 24 42 8.0 12.9 0.00 0.00 0.00 69 1017.3
20260906024828 25 90 8.0 17.7 0.00 0.00 0.00 68 1017.3
20260906024335 25 88 9.7 17.7 0.00 0.00 0.00 66 1017.3
20260906023820 25 58 6.4 16.1 0.00 0.00 0.00 65 1017.2
20260906023326 25 88 11.3 17.7 0.00 0.00 0.00 63 1017.2
20260906022836 25 68 9.7 17.7 0.00 0.00 0.00 62 1017.2
20260906022322 25 80 8.0 17.7 0.00 0.00 0.00 62 1016.9
20260906021826 25 72 8.0 12.9 0.00 0.00 0.00 61 1016.9
20260906021336 25 78 9.7 17.7 0.00 0.00 0.00 61 1016.9
20260906020824 25 130 9.7 17.7 0.00 0.00 0.00 61 1017.0
20260906020331 25 119 8.0 17.7 0.00 0.00 0.00 60 1017.0
20260906015818 26 106 9.7 17.7 0.00 0.00 0.00 60 1016.7
20260906015324 26 93 8.0 17.7 0.00 0.00 0.00 59 1016.7
20260906014831 26 124 11.3 17.7 0.00 0.00 0.00 58 1016.7
20260906014318 26 83 11.3 17.7 0.00 0.00 0.00 57 1016.6
20260906013828 26 119 11.3 19.3 0.00 0.00 0.00 56 1016.6
20260906013334 26 93 14.5 19.3 0.00 0.00 0.00 55 1016.6
20260906012825 27 93 8.0 16.1 0.00 0.00 0.00 52 1016.6
20260906012333 27 120 9.7 14.5 0.00 0.00 0.00 50 1016.6
20260906011840 27 73 8.0 16.1 0.00 0.00 0.00 49 1016.6
20260906011327 27 133 6.4 16.1 0.00 0.00 0.00 48 1016.6
20260906010834 27 80 8.0 16.1 0.00 0.00 0.00 48 1016.4
20260906010321 27 136 12.9 16.1 0.00 0.00 0.00 48 1016.4
20260906005830 27 124 8.0 17.7 0.00 0.00 0.00 47 1016.4
20260906005337 28 89 8.0 17.7 0.00 0.00 0.00 48 1016.2
20260906004823 28 110 11.3 17.7 0.00 0.00 0.00 48 1016.2
20260906004330 28 102 9.7 17.7 0.00 0.00 0.00 47 1016.2
20260906003839 28 128 6.4 17.7 0.00 0.00 0.00 46 1016.4
20260906003327 29 116 11.3 16.1 0.00 0.00 0.00 45 1016.4
20260906002834 29 109 11.3 16.1 0.00 0.00 0.00 45 1016.4
20260906002322 29 131 8.0 16.1 0.00 0.00 0.00 48 1016.4
20260906001829 29 185 8.0 20.9 0.00 0.00 0.00 48 1016.4
20260906001336 30 93 6.4 20.9 0.00 0.00 0.00 50 1016.4
20260906000824 30 158 6.4 22.5 0.00 0.00 0.00 50 1016.6
20260906000333 30 189 12.9 22.5 0.00 0.00 0.00 49 1016.6
20260905235837 30 179 9.7 25.7 0.00 0.00 0.00 48 1016.6
20260905235328 30 123 8.0 25.7 0.00 0.00 0.00 47 1016.8
20260905234845 30 174 6.4 22.5 0.00 0.00 0.00 48 1016.8
20260905234354 31 109 16.1 25.7 0.00 0.00 0.00 47 1016.8
20260905233839 32 97 12.9 25.7 0.00 0.00 0.00 44 1017.5
20260905233321 32 107 8.0 29.0 0.00 0.00 0.00 40 1017.5
20260905232828 32 102 14.5 20.9 0.00 0.00 0.00 37 1017.5
20260905232336 32 102 14.5 29.0 0.00 0.00 0.00 37 1017.0
20260905231823 32 130 11.3 29.0 0.00 0.00 0.00 37 1017.0
20260905231329 32 171 14.5 27.4 0.00 0.00 0.00 36 1017.0
20260905230835 33 136 9.7 27.4 0.00 0.00 0.00 36 1016.6
20260905230322 33 151 17.7 25.7 0.00 0.00 0.00 35 1016.6
20260905225830 33 160 8.0 20.9 0.00 0.00 0.00 36 1016.6
20260905225322 33 99 11.3 24.1 0.00 0.00 0.00 35 1016.6
20260905224828 33 76 17.7 25.7 0.00 0.00 0.00 35 1016.6
20260905224333 33 113 14.5 25.7 0.00 0.00 0.00 34 1016.6
20260905223820 33 95 11.3 19.3 0.00 0.00 0.00 33 1016.0
20260905223328 34 161 6.4 19.3 0.00 0.00 0.00 31 1016.0
20260905222835 34 198 6.4 17.7 0.00 0.00 0.00 31 1016.0
20260905222323 34 102 11.3 17.7 0.00 0.00 0.00 30 1015.5
20260905221829 34 120 3.2 16.1 0.00 0.00 0.00 31 1015.5
20260905221337 34 119 9.7 16.1 0.00 0.00 0.00 30 1015.5
20260905220825 34 96 8.0 19.3 0.00 0.00 0.00 29 1015.9
20260905220331 35 120 6.4 22.5 0.00 0.00 0.00 29 1015.9
20260905215816 35 124 8.0 20.9 0.00 0.00 0.00 29 1016.3
20260905215326 34 224 6.4 20.9 0.00 0.00 0.00 29 1016.3
20260905214834 35 155 9.7 20.9 0.00 0.00 0.00 28 1016.3
20260905214322 35 162 8.0 16.1 0.00 0.00 0.00 29 1016.4
20260905213829 35 110 9.7 16.1 0.00 0.00 0.00 28 1016.4
20260905213337 35 145 8.0 17.7 0.00 0.00 0.00 29 1016.4
20260905212825 35 113 6.4 17.7 0.00 0.00 0.00 28 1016.4
20260905212332 35 147 12.9 16.1 0.00 0.00 0.00 28 1016.3
20260905211823 35 176 9.7 16.1 0.00 0.00 0.00 29 1016.3
20260905211331 35 106 11.3 16.1 0.00 0.00 0.00 28 1016.3